• In Netherlands
  • List of Countries
  • For 7 days
  • Water Temperature
  • Satellite Maps
  • Weather Map
  • Weather Widgets
  • user-avatar
    Login

    Hourly Weather Kiustendil

    Today, 26 May, Friday

    Time Temperature Precipitation Wind Pressure Humidity
    00:00 +3°C° 1.7 mm 2 mps 622 mmHg 95%
    01:00 +3°C° 1.7 mm 2 mps 621 mmHg 95%
    02:00 +3°C° 1.7 mm 2 mps 621 mmHg 95%
    03:00 +3°C° 1.7 mm 2 mps 621 mmHg 95%
    04:00 +3°C° 1.7 mm 1 mps 621 mmHg 95%
    05:00 +3°C° 1.2 mm 2 mps 621 mmHg 94%
    06:00 +3°C° 1.2 mm 2 mps 622 mmHg 92%
    07:00 +4°C° 1.2 mm 2 mps 622 mmHg 91%
    08:00 +4°C° 0.9 mm 2 mps 622 mmHg 89%
    09:00 +5°C° 0.9 mm 2 mps 622 mmHg 87%
    10:00 +6°C° 0.9 mm 2 mps 623 mmHg 85%
    11:00 +7°C° 0.5 mm 2 mps 623 mmHg 83%
    12:00 +7°C° 0.5 mm 2 mps 623 mmHg 81%
    13:00 +8°C° 0.5 mm 2 mps 624 mmHg 78%
    14:00 +8°C° 0.2 mm 2 mps 623 mmHg 79%
    15:00 +8°C° 0.2 mm 2 mps 623 mmHg 80%
    16:00 +8°C° 0.2 mm 2 mps 623 mmHg 81%
    17:00 +7°C° 0.4 mm 2 mps 623 mmHg 85%
    18:00 +6°C° 0.4 mm 2 mps 622 mmHg 90%
    19:00 +6°C° 0.4 mm 1 mps 622 mmHg 94%
    20:00 +6°C° 0.4 mm 1 mps 622 mmHg 95%
    21:00 +6°C° 0.4 mm 1 mps 623 mmHg 95%
    22:00 +6°C° 0.4 mm 1 mps 623 mmHg 96%
    23:00 +5°C° 0.1 mm 1 mps 623 mmHg 96%

    Tomorrow, 27 May, Saturday

    Time Temperature Precipitation Wind Pressure Humidity
    00:00 +5°C° 0.1 mm 1 mps 623 mmHg 96%
    01:00 +5°C° 0.1 mm 1 mps 623 mmHg 96%
    02:00 +5°C° 0 mm 1 mps 622 mmHg 96%
    03:00 +4°C° 0 mm 1 mps 622 mmHg 97%
    04:00 +3°C° 0 mm 2 mps 622 mmHg 97%
    05:00 +4°C° 0.1 mm 2 mps 623 mmHg 93%
    06:00 +5°C° 0.1 mm 2 mps 624 mmHg 90%
    07:00 +7°C° 0.1 mm 2 mps 624 mmHg 87%
    08:00 +8°C° 0.2 mm 3 mps 625 mmHg 81%
    09:00 +9°C° 0.2 mm 3 mps 625 mmHg 75%
    10:00 +9°C° 0.2 mm 3 mps 626 mmHg 69%
    11:00 +10°C° 0.2 mm 3 mps 626 mmHg 69%
    12:00 +10°C° 0.2 mm 3 mps 626 mmHg 68%
    13:00 +10°C° 0.2 mm 3 mps 626 mmHg 68%
    14:00 +10°C° 0.1 mm 3 mps 626 mmHg 65%
    15:00 +11°C° 0.1 mm 3 mps 626 mmHg 63%
    16:00 +11°C° 0.1 mm 3 mps 626 mmHg 61%
    17:00 +9°C° 0.3 mm 3 mps 626 mmHg 69%
    18:00 +7°C° 0.3 mm 2 mps 625 mmHg 78%
    19:00 +5°C° 0.3 mm 2 mps 625 mmHg 87%
    20:00 +5°C° 0 mm 2 mps 625 mmHg 89%
    21:00 +4°C° 0 mm 2 mps 625 mmHg 91%
    22:00 +3°C° 0 mm 2 mps 625 mmHg 94%
    23:00 +3°C° 0 mm 2 mps 625 mmHg 94%

    Day after tomorrow, 28 May, Sunday

    Time Temperature Precipitation Wind Pressure Humidity
    00:00 +2°C° 0 mm 2 mps 625 mmHg 94%
    01:00 +2°C° 0 mm 2 mps 625 mmHg 95%
    02:00 +2°C° 0 mm 2 mps 625 mmHg 94%
    03:00 +1°C° 0 mm 2 mps 625 mmHg 94%
    04:00 +1°C° 0 mm 2 mps 625 mmHg 94%
    05:00 +3°C° 0 mm 2 mps 626 mmHg 87%
    06:00 +5°C° 0 mm 2 mps 628 mmHg 79%
    07:00 +7°C° 0 mm 2 mps 629 mmHg 71%
    08:00 +9°C° 0 mm 2 mps 629 mmHg 63%
    09:00 +11°C° 0 mm 3 mps 630 mmHg 55%
    10:00 +13°C° 0 mm 3 mps 631 mmHg 46%
    11:00 +13°C° 0.1 mm 3 mps 631 mmHg 45%
    12:00 +14°C° 0.1 mm 3 mps 631 mmHg 44%
    13:00 +16°C° 0.1 mm 3 mps 631 mmHg 43%
    14:00 +14°C° 0.2 mm 3 mps 631 mmHg 45%
    15:00 +14°C° 0.2 mm 3 mps 631 mmHg 46%
    16:00 +14°C° 0.2 mm 3 mps 631 mmHg 48%
    17:00 +11°C° 0 mm 3 mps 630 mmHg 57%
    18:00 +9°C° 0 mm 2 mps 629 mmHg 66%
    19:00 +7°C° 0 mm 2 mps 629 mmHg 75%
    20:00 +5°C° 0 mm 2 mps 628 mmHg 79%
    21:00 +4°C° 0 mm 2 mps 628 mmHg 83%
    22:00 +4°C° 0 mm 1 mps 628 mmHg 87%
    23:00 +3°C° 0 mm 1 mps 628 mmHg 88%

    29 May, Monday

    Time Temperature Precipitation Wind Pressure Humidity
    00:00 +3°C° 0 mm 1 mps 628 mmHg 89%
    01:00 +3°C° 0 mm 1 mps 627 mmHg 90%
    02:00 +2°C° 0 mm 1 mps 627 mmHg 90%
    03:00 +2°C° 0 mm 1 mps 627 mmHg 90%
    04:00 +2°C° 0 mm 1 mps 627 mmHg 91%
    05:00 +4°C° 0 mm 1 mps 628 mmHg 81%
    06:00 +7°C° 0 mm 1 mps 629 mmHg 71%
    07:00 +10°C° 0 mm 1 mps 630 mmHg 61%
    08:00 +12°C° 0 mm 1 mps 630 mmHg 54%
    09:00 +14°C° 0 mm 1 mps 631 mmHg 46%
    10:00 +16°C° 0 mm 1 mps 632 mmHg 39%
    11:00 +16°C° 0 mm 1 mps 631 mmHg 36%
    12:00 +18°C° 0 mm 1 mps 631 mmHg 33%
    13:00 +19°C° 0 mm 1 mps 631 mmHg 31%
    14:00 +19°C° 0 mm 1 mps 631 mmHg 32%
    15:00 +17°C° 0 mm 2 mps 630 mmHg 33%
    16:00 +17°C° 0 mm 2 mps 630 mmHg 35%
    17:00 +14°C° 0 mm 1 mps 628 mmHg 47%
    18:00 +10°C° 0 mm 1 mps 627 mmHg 60%
    19:00 +7°C° 0 mm 1 mps 626 mmHg 73%
    20:00 +6°C° 0 mm 1 mps 626 mmHg 75%
    21:00 +5°C° 0 mm 1 mps 625 mmHg 77%
    22:00 +4°C° 0 mm 1 mps 625 mmHg 79%
    23:00 +4°C° 0 mm 1 mps 625 mmHg 81%

    30 May, Tuesday

    Time Temperature Precipitation Wind Pressure Humidity
    00:00 +3°C° 0 mm 1 mps 624 mmHg 82%
    01:00 +3°C° 0 mm 1 mps 624 mmHg 83%
    02:00 +3°C° 0 mm 1 mps 624 mmHg 84%
    03:00 +1°C° 0 mm 0 mps 623 mmHg 85%
    04:00 +1°C° 0 mm 0 mps 623 mmHg 85%
    05:00 +4°C° 0 mm 0 mps 625 mmHg 74%
    06:00 +8°C° 0 mm 0 mps 626 mmHg 63%
    07:00 +11°C° 0 mm 0 mps 628 mmHg 51%
    08:00 +13°C° 0 mm 0 mps 628 mmHg 46%
    09:00 +15°C° 0 mm 0 mps 629 mmHg 41%
    10:00 +19°C° 0 mm 1 mps 630 mmHg 37%
    11:00 +20°C° 0 mm 1 mps 630 mmHg 35%
    12:00 +21°C° 0 mm 1 mps 630 mmHg 32%
    13:00 +21°C° 0 mm 1 mps 630 mmHg 30%
    14:00 +21°C° 0 mm 1 mps 629 mmHg 32%
    15:00 +20°C° 0 mm 1 mps 629 mmHg 33%
    16:00 +20°C° 0 mm 1 mps 629 mmHg 35%
    17:00 +15°C° 0 mm 1 mps 627 mmHg 47%
    18:00 +12°C° 0 mm 1 mps 626 mmHg 60%
    19:00 +9°C° 0 mm 1 mps 625 mmHg 72%
    20:00 +8°C° 0 mm 1 mps 625 mmHg 76%
    21:00 +7°C° 0 mm 1 mps 625 mmHg 79%
    22:00 +5°C° 0 mm 0 mps 625 mmHg 82%
    23:00 +5°C° 0 mm 0 mps 624 mmHg 83%

    31 May, Wednesday

    Time Temperature Precipitation Wind Pressure Humidity
    00:00 +4°C° 0 mm 0 mps 624 mmHg 84%
    01:00 +4°C° 0 mm 0 mps 624 mmHg 85%
    02:00 +3°C° 0 mm 0 mps 624 mmHg 85%
    03:00 +3°C° 0 mm 0 mps 624 mmHg 86%
    04:00 +3°C° 0 mm 0 mps 623 mmHg 86%
    05:00 +6°C° 0 mm 0 mps 625 mmHg 74%
    06:00 +10°C° 0 mm 0 mps 627 mmHg 63%
    07:00 +14°C° 0 mm 1 mps 629 mmHg 51%
    08:00 +16°C° 0 mm 1 mps 629 mmHg 46%
    09:00 +19°C° 0 mm 1 mps 630 mmHg 40%
    10:00 +19°C° 0 mm 2 mps 630 mmHg 35%
    11:00 +20°C° 0 mm 2 mps 630 mmHg 33%
    12:00 +21°C° 0 mm 2 mps 630 mmHg 31%
    13:00 +23°C° 0 mm 2 mps 630 mmHg 28%
    14:00 +21°C° 0 mm 2 mps 630 mmHg 30%
    15:00 +21°C° 0 mm 2 mps 630 mmHg 32%
    16:00 +21°C° 0 mm 2 mps 630 mmHg 33%
    17:00 +18°C° 0 mm 2 mps 629 mmHg 45%
    18:00 +15°C° 0 mm 2 mps 628 mmHg 56%
    19:00 +11°C° 0 mm 1 mps 627 mmHg 68%
    20:00 +11°C° 0 mm 1 mps 627 mmHg 71%
    21:00 +10°C° 0 mm 1 mps 627 mmHg 75%
    22:00 +9°C° 0 mm 1 mps 627 mmHg 79%
    23:00 +8°C° 0 mm 1 mps 626 mmHg 81%
    Show more